Find Starlink 3110

NORAD ID: 49420 Int'l Des: 2021-104 Owner: SPXS Country: US Constellation: starlink operational
LEOCIRCULAR

实时位置

正在加载3D地球...

关于 Starlink 3110

正在加载描述...

即将过境

Passes for default location (London). Set your location on the main map for personalized predictions.

高度历史

Loading altitude history...

两行轨道根数

1 49420U 21104N 26105.59660764 .00000315 00000-0 37911-4 0 9998
2 49420 53.2175 63.4384 0001432 87.8328 272.2828 15.08837324244190
Epoch: Apr 15, 2026 • Age: 20 hours

当前状态

高度 550.8 km
速度 7.59 km/s
星下点 -33.12°S, 91.55°W
发射日期 Nov 13, 2021
运行时间 4.4 years
类型 internet

技术详情

分类 Payload
质量 290.00 kg
干质量 270.00 kg
总质量 290.00 kg
长度 0.20 m
直径 2.80 m
跨度 9.00 m
形状 Box + pan
制造商 SPXS
平台类型 Starlink
阶段状态 In Orbit
所有者/国家 SPXS/US

Most Searched